This is the latest recevied weather packets stored in our database for station/object F4FSZ-11. If no packets are shown the sender has not sent any weather packets the latest 10 day(s).
| Time | Temp. | Humidity | Pressure | Rain* | Wind** | Luminosity | Snow |
|---|---|---|---|---|---|---|---|
| 1777632506 | 23.33° C | 42% | 1017.1 hPa | - | - | - | - |
| 1777631606 | 23.33° C | 48% | 1017 hPa | - | - | - | - |
| 1777630706 | 23.33° C | 45% | 1017.2 hPa | - | - | - | - |
| 1777629806 | 21.67° C | 44% | 1017.2 hPa | - | - | - | - |
| 1777628906 | 21.11° C | 47% | 1017.2 hPa | - | - | - | - |
| 1777628006 | 20.56° C | 47% | 1017.2 hPa | - | - | - | - |
| 1777627106 | 20° C | 47% | 1017.2 hPa | - | - | - | - |
| 1777626205 | 17.78° C | 48% | 1017.2 hPa | - | - | - | - |
| 1777625305 | 16.67° C | 49% | 1017.2 hPa | - | - | - | - |
| 1777624405 | 15° C | 49% | 1017.2 hPa | - | - | - | - |
| 1777623505 | 14.44° C | 52% | 1017.2 hPa | - | - | - | - |
| 1777622605 | 13.89° C | 51% | 1017.2 hPa | - | - | - | - |
| 1777621705 | 13.33° C | 49% | 1017.1 hPa | - | - | - | - |
| 1777620805 | 12.22° C | 51% | 1016.9 hPa | - | - | - | - |
| 1777619905 | 11.67° C | 55% | 1016.9 hPa | - | - | - | - |
| 1777619005 | 11.11° C | 62% | 1016.8 hPa | - | - | - | - |
| 1777618105 | 10° C | 69% | 1016.8 hPa | - | - | - | - |
| 1777617205 | 8.89° C | 73% | 1016.7 hPa | - | - | - | - |
| 1777616305 | 8.33° C | 75% | 1016.9 hPa | - | - | - | - |
| 1777614505 | 6.11° C | 77% | 1016.5 hPa | - | - | - | - |
| 1777613604 | 5.56° C | 79% | 1016.6 hPa | - | - | - | - |
| 1777612704 | 4.44° C | 83% | 1016.4 hPa | - | - | - | - |
| 1777611804 | 3.33° C | 85% | 1016.4 hPa | - | - | - | - |
| 1777610905 | 3.33° C | 87% | 1016.2 hPa | - | - | - | - |
| 1777610004 | 3.33° C | 86% | 1016.1 hPa | - | - | - | - |
* Rain since midnight (hover to see other rain measurements)
** Current wind speed in m/s (hover to see current wind gust speed)